Roanoke, VA

11:58 PM EDT on August 19, 2019 (GMT -0400)
Roanoke Regional-Woodrum

Weather History for KROA - July, 2019

Change the Weather History Date:

Monday, July 22, 2019

  Actual Average Record
Temperature  
Mean Temperature 79 °F 77 °F  
Max Temperature 86 °F 87 °F 103 °F (1952)
Min Temperature 71 °F 67 °F 51 °F (1944)
Degree Days  
Heating Degree Days 0 0  
Month to date heating degree days 0 0  
Since 1 June heating degree days 0 11  
Since 1 July heating degree days 0 0  
Cooling Degree Days 14 12  
Month to date cooling degree days 366 259  
Year to date cooling degree days 890 621  
Since 1 June cooling degree days 611 505  
Growing Degree Days 28 (Base 50)    
Moisture  
Dew Point 69 °F    
Average Humidity 77    
Maximum Humidity 93    
Minimum Humidity 61    
Precipitation  
Precipitation 0.47 in 0.13 in 1.73 in (2008)
Month to date precipitation 3.59 2.87  
Year to date precipitation 26.46 23.40  
Snow  
Snow 0.00 in - - ()
Month to date snowfall T  
Since 1 June snowfall T  
Since 1 July snowfall T  
Snow Depth 0.00 in    
Sea Level Pressure  
Sea Level Pressure 29.93 in    
Wind  
Wind Speed 7 mph (WSW)    
Max Wind Speed 24 mph    
Max Gust Speed 40 mph    
Visibility 9 miles    
Events Rain , Thunderstorm    
T = Trace of Precipitation, MM = Missing Value Source: NWS Daily Summary

Daily Weather History Graph

Daily Weather History Graph

Search for Another Location

Airport or City:

Astronomy

Jul. 22, 2019 Rise Set
Actual Time 6:16 AM EDT 8:36 PM EDT
Civil Twilight 5:46 AM EDT 9:05 PM EDT
Nautical Twilight 5:09 AM EDT 9:42 PM EDT
Astronomical Twilight 4:29 AM EDT 10:22 PM EDT
Moon No Moon Rise 11:25 AM EDT (7/22)
Length of Visible Light 15h 19m
Length of Day
14h 19m
Waning Gibbous, 72% of the Moon is Illuminated
Jul 22
Waning Gibbous
Jul 24
Last Quarter
Jul 31
New
Aug 7
First Quarter
Aug 15
Full

Hourly Weather History & Observations

Time (EDT) Temp. Heat Index Dew Point Humidity Pressure Visibility Wind Dir Wind Speed Gust Speed Precip Events Conditions
12:54 AM 71.1 °F - 69.1 °F 93% 29.97 in 10.0 mi Calm Calm - N/A   Clear
1:54 AM 72.0 °F - 69.1 °F 91% 29.97 in 10.0 mi Calm Calm - N/A   Scattered Clouds
2:54 AM 72.0 °F - 69.1 °F 91% 29.95 in 10.0 mi NE 5.8 mph - N/A   Partly Cloudy
3:54 AM 71.1 °F - 69.1 °F 93% 29.95 in 10.0 mi Calm Calm - N/A   Clear
4:54 AM 72.0 °F - 69.1 °F 91% 29.94 in 10.0 mi Calm Calm - N/A   Scattered Clouds
5:54 AM 73.0 °F - 69.1 °F 87% 29.93 in 10.0 mi WNW 4.6 mph - N/A   Scattered Clouds
6:54 AM 73.0 °F - 69.1 °F 87% 29.94 in 10.0 mi NNW 4.6 mph - N/A   Scattered Clouds
7:54 AM 75.9 °F - 69.1 °F 79% 29.94 in 10.0 mi West 5.8 mph - N/A   Scattered Clouds
8:54 AM 77.0 °F - 70.0 °F 79% 29.96 in 10.0 mi West 9.2 mph - N/A   Scattered Clouds
9:54 AM 78.1 °F - 69.1 °F 74% 29.95 in 10.0 mi West 12.7 mph - N/A   Scattered Clouds
10:54 AM 79.0 °F - 69.1 °F 72% 29.96 in 10.0 mi West 9.2 mph - N/A   Scattered Clouds
11:54 AM 79.0 °F - 70.0 °F 74% 29.96 in 10.0 mi West 10.4 mph 18.4 mph N/A   Scattered Clouds
12:54 PM 82.0 °F 85.9 °F 70.0 °F 67% 29.94 in 10.0 mi West 12.7 mph 20.7 mph N/A   Scattered Clouds
1:54 PM 84.9 °F 90.1 °F 71.1 °F 63% 29.92 in 10.0 mi WSW 6.9 mph - N/A   Overcast
2:54 PM 84.9 °F 89.4 °F 70.0 °F 61% 29.90 in 10.0 mi WSW 5.8 mph - N/A   Overcast
3:54 PM 84.9 °F 89.4 °F 70.0 °F 61% 29.86 in 10.0 mi SSW 8.1 mph - N/A   Overcast
4:18 PM 71.1 °F - 69.1 °F 93% 29.96 in 2.0 mi West 17.3 mph 40.3 mph 0.13 in Rain , Thunderstorm Heavy Thunderstorms and Rain
4:28 PM 71.1 °F - 70.0 °F 96% 29.95 in 2.0 mi WSW 11.5 mph - 0.42 in Rain , Thunderstorm Heavy Thunderstorms and Rain
4:38 PM 71.1 °F - 69.1 °F 93% 29.94 in 4.0 mi Variable 5.8 mph - 0.46 in Rain , Thunderstorm Light Thunderstorms and Rain
4:54 PM 72.0 °F - 69.1 °F 91% 29.91 in 10.0 mi WSW 4.6 mph - 0.47 in Rain , Thunderstorm Light Thunderstorms and Rain
5:04 PM 72.0 °F - 69.1 °F 91% 29.92 in 10.0 mi West 6.9 mph - 0.00 in Rain Light Rain
5:28 PM 73.0 °F - 70.0 °F 90% 29.94 in 10.0 mi Variable 3.5 mph - 0.00 in Thunderstorm Mostly Cloudy
5:35 PM 73.9 °F - 70.0 °F 87% 29.94 in 10.0 mi WSW 4.6 mph - 0.00 in Thunderstorm Thunderstorm
5:54 PM 75.0 °F - 70.0 °F 84% 29.90 in 10.0 mi SW 5.8 mph - 0.00 in Thunderstorm Thunderstorm
6:11 PM 73.9 °F - 71.1 °F 91% 29.93 in 10.0 mi Calm Calm - N/A   Overcast
6:54 PM 75.0 °F - 70.0 °F 84% 29.88 in 10.0 mi South 5.8 mph - 0.00 in Rain Light Rain
7:54 PM 73.9 °F - 69.1 °F 85% 29.88 in 10.0 mi West 6.9 mph - 0.00 in   Overcast
8:54 PM 73.9 °F - 69.1 °F 85% 29.88 in 10.0 mi SSW 4.6 mph - N/A   Mostly Cloudy
9:54 PM 73.9 °F - 68.0 °F 82% 29.89 in 10.0 mi SW 9.2 mph - 0.00 in   Overcast
10:54 PM 73.9 °F - 66.9 °F 79% 29.89 in 10.0 mi WSW 9.2 mph - N/A   Mostly Cloudy
11:54 PM 73.9 °F - 66.0 °F 76% 29.88 in 10.0 mi WSW 10.4 mph - N/A   Overcast